This demonstration page uses our WeatherBlox Daily Observations layout. Learn more.

Left ArrowRight Arrow

Hourly Observations for November 19, 2020

Temp ( °F °C ) Dew Point ( °F °C ) Humidity (%) Winds ( mph kmh ) Pressure ( in mb ) Visibility ( mi km ) Precip ( " mm )
12:54 am 00:54 Clear 60 15.6 38 3.3 44 44 S 16 26 29.77 1008 10 16.0934 0 0
1:54 am 01:54 Clear 59 15 37 2.8 44 44 S 17 28 29.75 1007 10 16.0934 0 0
2:54 am 02:54 Clear 58 14.4 36 2.2 44 44 S 13 20 29.75 1007 10 16.0934 0 0
3:54 am 03:54 Clear 55 12.8 36 2.2 49 49 SSW 8 13 29.76 1008 10 16.0934 0 0
4:54 am 04:54 Clear 54 12.2 35 1.7 49 49 Calm 29.78 1009 10 16.0934 0 0
5:54 am 05:54 Clear 51 10.6 34 1.1 52 52 S 6 9 29.79 1009 10 16.0934 0 0
6:54 am 06:54 Clear 49 9.4 34 1.1 56 56 SSW 6 9 29.79 1009 10 16.0934 0 0
7:54 am 07:54 Sunny 47 8.3 35 1.7 63 63 S 6 9 29.81 1009 10 16.0934 0 0
8:54 am 08:54 Sunny 56 13.3 39 3.9 53 53 SSW 10 17 29.82 1010 10 16.0934 0 0
9:54 am 09:54 Sunny 61 16.1 41 5 48 48 SW 12 19 29.83 1010 10 16.0934 0 0
10:54 am 10:54 Sunny 65 18.3 41 5 42 42 SSW 8 13 29.83 1010 10 16.0934 0 0
11:54 am 11:54 Sunny 69 20.6 41 5 36 36 SW 9 15 29.83 1010 10 16.0934 0 0
12:54 pm 12:54 Sunny 72 22.2 40 4.4 31 31 W 8 13 29.81 1010 10 16.0934 0 0
1:54 pm 13:54 Sunny 74 23.3 39 3.9 28 28 WSW 10 17 29.81 1010 10 16.0934 0 0
2:54 pm 14:54 Sunny 76 24.4 38 3.3 25 25 W 6 9 29.83 1010 10 16.0934 0 0
3:54 pm 15:54 Sunny 75 23.9 38 3.3 26 26 NW 9 15 29.86 1011 7 11.26538 0 0
4:54 pm 16:54 Sunny 70 21.1 38 3.3 31 31 NW 5 7 29.89 1012 10 16.0934 0 0
5:54 pm 17:54 Clear 56 13.3 37 2.8 49 49 Calm 29.93 1014 10 16.0934 0 0
6:54 pm 18:54 Clear 49 9.4 37 2.8 64 64 N 7 11 29.98 1015 8 12.87472 0 0
7:54 pm 19:54 Clear 50 10 37 2.8 61 61 NNW 3 6 30.01 1016 10 16.0934 0 0
8:54 pm 20:54 Clear 48 8.9 36 2.2 63 63 Calm 30.02 1017 10 16.0934 0 0
9:54 pm 21:54 Clear 39 3.9 33 0.6 79 79 N 7 11 30.07 1018 9 14.48406 0 0
10:54 pm 22:54 Clear 39 3.9 33 0.6 79 79 N 7 11 30.09 1019 10 16.0934 0 0
11:54 pm 23:54 Clear 40 4.4 33 0.6 77 77 N 6 9 30.11 1020 10 16.0934 0 0

Powered by AerisWeather